This is the latest recevied weather packets stored in our database for station/object DC2ML-11. If no packets are shown the sender has not sent any weather packets the latest 10 day(s).
| Time | Temp. | Humidity | Pressure | Rain* | Wind** | Luminosity | Snow |
|---|---|---|---|---|---|---|---|
| 1777299991 | 19.44° C | 41% | 1023 hPa | - | - | - | - |
| 1777299091 | 19.44° C | 41% | 1023.1 hPa | - | - | - | - |
| 1777298191 | 19.44° C | 41% | 1023.2 hPa | - | - | - | - |
| 1777297291 | 18.89° C | 41% | 1023.4 hPa | - | - | - | - |
| 1777296391 | 18.89° C | 41% | 1023.5 hPa | - | - | - | - |
| 1777295491 | 18.89° C | 40% | 1023.6 hPa | - | - | - | - |
| 1777294590 | 18.33° C | 41% | 1023.7 hPa | - | - | - | - |
| 1777293690 | 18.33° C | 40% | 1023.7 hPa | - | - | - | - |
| 1777292790 | 17.78° C | 41% | 1023.9 hPa | - | - | - | - |
| 1777291890 | 17.78° C | 39% | 1023.9 hPa | - | - | - | - |
| 1777290990 | 17.78° C | 39% | 1024 hPa | - | - | - | - |
| 1777290090 | 17.78° C | 39% | 1024.2 hPa | - | - | - | - |
| 1777289190 | 17.78° C | 42% | 1024.4 hPa | - | - | - | - |
| 1777288290 | 17.22° C | 44% | 1024.4 hPa | - | - | - | - |
| 1777287390 | 17.22° C | 43% | 1024.6 hPa | - | - | - | - |
| 1777286490 | 16.67° C | 44% | 1024.8 hPa | - | - | - | - |
| 1777285590 | 16.67° C | 44% | 1024.8 hPa | - | - | - | - |
| 1777284690 | 16.67° C | 44% | 1024.8 hPa | - | - | - | - |
| 1777283790 | 16.67° C | 44% | 1024.9 hPa | - | - | - | - |
| 1777282890 | 16.11° C | 44% | 1025 hPa | - | - | - | - |
| 1777281990 | 15.56° C | 45% | 1025.2 hPa | - | - | - | - |
| 1777281089 | 15.56° C | 45% | 1025.3 hPa | - | - | - | - |
| 1777280193 | 15.56° C | 45% | 1025.4 hPa | - | - | - | - |
| 1777279293 | 15.56° C | 46% | 1025.4 hPa | - | - | - | - |
| 1777278393 | 15° C | 46% | 1025.4 hPa | - | - | - | - |
* Rain since midnight (hover to see other rain measurements)
** Current wind speed in m/s (hover to see current wind gust speed)